Lid_Strength_Index
6 6 5 5 4 3 4 4 3 2 1 1 2 2 2 2 2 2 1 1 1 2 2 3 3 3 3 3 4 4 6 7 8 7 6 6 4 4 4 4 4 4 3
5 5 5 5 5 5 4 4 4 3 3 3 3 3 3 3 2 2 1 1 2 2 1 2 2 1 4 4 4 6 6 6 7 8 7 7 6 5 5 5 4 2 3
5 5 6 6 5 5 5 4 4 3 3 3 3 3 4 3 3 3 3 2 2 2 2 3 4 4 5 6 6 6 5 5 6 6 6 6 5 5 6 6 5 4 2
4 5 6 5 4 4 4 4 4 4 4 3 3 3 3 4 3 3 2 3 3 2 3 3 5 5 6 6 5 5 5 5 5 6 6 6 5 5 5 6 5 4 4
4 5 5 5 5 4 4 4 4 4 4 4 4 4 4 4 3 4 4 4 4 5 4 4 4 2 1 2 4 5 6 6 6 6 7 7 6 6 6 4 5 5 5
4 4 5 5 4 5 5 5 5 5 4 3 3 5 6 5 4 3 4 6 5 5 5 4 3 2 2 1 1 1 4 7 8 7 7 7 7 6 6 6 6 6 6
5 4 4 5 4 3 4 4 3 4 4 4 4 4 6 6 5 5 3 5 4 4 4 4 3 3 4 5 4 3 2 2 3 6 7 7 7 6 7 8 7 6 5
4 4 3 4 4 4 3 4 4 3 4 5 5 6 6 5 5 5 4 4 4 4 5 5 5 5 6 7 5 4 4 4 4 3 5 5 5 5 6 6 6 6 5
4 4 3 3 3 3 3 2 4 5 5 5 5 6 6 6 5 6 6 5 5 5 5 6 6 6 6 7 5 5 4 3 2 3 4 5 5 5 5 7 6 6 6
3 3 3 3 3 3 2 2 2 3 4 4 4 5 4 6 7 7 7 6 6 5 4 5 5 6 7 7 6 6 5 4 4 4 3 3 3 2 3 5 5 6 6
3 2 2 3 4 4 5 3 3 3 3 4 5 6 7 7 8 7 7 6 5 4 4 5 5 5 7 7 7 7 7 6 6 7 5 5 5 4 4 4 5 5 6
2 2 3 3 3 3 8 7 6 6 5 6 6 7 7 8 7 7 8 7 5 4 4 5 7 7 8 7 7 7 8 7 7 6 7 7 6 6 6 5 5 5 4
3 4 4 3 4 5 9 10 9 9 8 9 9 9 9 9 10 8 8 8 7 7 7 6 7 7 7 6 7 7 7 7 8 8 8 8 8 7 7 7 7 7 8
4 4 4 4 4 6 7 10 12 12 12 11 9 11 12 11 11 10 10 9 7 7 7 6 5 6 6 6 6 6 7 7 8 8 9 9 8 8 8 8 9 9 9
4 4 4 4 3 4 7 9 11 13 12 13 13 11 12 13 11 10 10 10 9 9 8 6 7 7 7 7 7 7 7 8 8 8 9 9 9 8 9 9 10 11 11
4 4 4 4 3 4 8 9 10 10 10 10 10 12 11 10 10 9 9 9 9 9 7 8 8 8 8 8 8 8 8 8 8 8 8 9 9 9 9 9 10 11 11
5 4 4 4 5 6 6 9 10 10 9 10 10 10 10 10 10 10 10 9 9 9 9 10 9 8 8 9 8 8 9 9 9 9 9 8 9 9 9 10 10 11 11
4 5 5 5 5 6 5 6 8 9 11 10 9 9 9 10 10 10 10 9 9 9 10 10 9 9 9 9 9 10 10 10 10 10 9 9 9 9 10 10 11 12 12
4 3 3 3 4 5 6 7 6 8 9 9 9 10 9 9 10 9 9 10 10 10 10 9 10 10 10 10 11 11 11 11 11 10 10 9 9 10 10 10 11 11 12
4 5 5 4 4 5 7 8 8 7 8 8 11 10 9 9 9 10 10 10 10 10 10 10 10 10 10 11 11 12 13 12 12 11 11 10 9 10 10 11 11 12 12
3 4 6 5 5 5 8 7 8 8 9 10 10 10 11 9 9 10 10 10 10 10 10 10 11 11 12 12 12 13 13 13 13 12 11 11 10 10 10 10 10 11 12
2 4 4 5 4 6 7 7 8 9 8 9 9 10 12 9 10 10 10 10 10 10 10 11 12 12 12 13 14 14 14 14 14 13 12 12 10 10 10 10 11 12 12
3 3 3 4 4 6 7 7 7 9 9 8 8 9 9 8 9 10 9 9 10 10 10 11 12 13 13 13 13 14 15 14 14 13 13 12 11 10 11 11 11 12 12
4 4 4 3 3 3 5 7 7 9 9 9 9 9 9 8 8 9 10 10 10 10 10 11 12 13 13 13 14 14 14 14 14 13 12 12 10 10 10 11 11 11 12
5 4 4 4 4 4 3 3 6 7 8 9 9 9 9 8 8 9 10 10 10 10 10 11 12 12 13 13 14 14 14 14 14 14 12 11 10 10 11 12 11 12 11
4 4 5 4 3 4 4 4 3 5 7 8 9 9 9 9 7 9 10 10 10 10 10 11 11 12 13 13 14 14 14 14 13 13 12 10 10 11 12 12 11 11 12